Time,TemperatureF,DewpointF,PressureIn,WindDirection,WindDirectionDegrees,WindSpeedMPH,WindSpeedGustMPH,Humidity,HourlyPrecipIn,Conditions,Clouds,dailyrainin,SoftwareType,DateUTC
2013-03-18 00:00:00,52.5,46.2,29.96,East,94,2.0,7.0,79,0.00,,,0.00,meteohub,2013-03-18 04:00:00,
2013-03-18 00:01:00,52.5,46.6,29.96,SE,141,7.0,7.0,80,0.00,,,0.00,meteohub,2013-03-18 04:01:00,
2013-03-18 00:06:00,52.2,46.2,29.96,SSE,158,2.0,8.0,80,0.00,,,0.00,meteohub,2013-03-18 04:06:00,
2013-03-18 00:11:00,52.0,46.0,29.96,ESE,104,0.0,8.0,80,0.00,,,0.00,meteohub,2013-03-18 04:11:00,
2013-03-18 00:16:00,51.6,46.0,29.96,SE,129,0.0,8.0,81,0.00,,,0.00,meteohub,2013-03-18 04:16:00,
2013-03-18 00:21:00,51.3,45.7,29.96,SE,126,0.0,5.0,81,0.00,,,0.00,meteohub,2013-03-18 04:21:00,
2013-03-18 00:26:00,50.9,45.3,29.96,South,169,4.0,6.0,81,0.00,,,0.00,meteohub,2013-03-18 04:26:00,
2013-03-18 00:31:00,50.7,45.5,29.95,South,172,3.0,8.0,82,0.00,,,0.00,meteohub,2013-03-18 04:31:00,
2013-03-18 00:36:00,50.5,45.3,29.95,SE,138,9.0,10.0,82,0.00,,,0.00,meteohub,2013-03-18 04:36:00,
2013-03-18 00:41:00,50.4,45.1,29.95,SE,142,5.0,10.0,82,0.00,,,0.00,meteohub,2013-03-18 04:41:00,
2013-03-18 00:46:00,50.2,45.0,29.95,SSW,210,2.0,9.0,82,0.00,,,0.00,meteohub,2013-03-18 04:46:00,
2013-03-18 00:51:00,49.8,44.6,29.95,SE,124,4.0,10.0,82,0.00,,,0.00,meteohub,2013-03-18 04:51:00,
2013-03-18 00:56:00,49.5,44.2,29.96,SE,135,4.0,10.0,82,0.00,,,0.00,meteohub,2013-03-18 04:56:00,
2013-03-18 01:01:00,49.3,44.4,29.96,SSE,162,1.0,10.0,83,0.00,,,0.00,meteohub,2013-03-18 05:01:00,
2013-03-18 01:06:00,48.9,44.1,29.96,SE,143,2.0,6.0,83,0.00,,,0.00,meteohub,2013-03-18 05:06:00,
2013-03-18 01:11:00,48.7,43.9,29.96,SSW,196,1.0,6.0,83,0.00,,,0.00,meteohub,2013-03-18 05:11:00,
2013-03-18 01:17:00,48.6,43.7,29.96,South,177,3.0,6.0,83,0.00,,,0.00,meteohub,2013-03-18 05:17:00,
2013-03-18 01:22:00,48.4,43.7,29.96,ESE,117,0.0,6.0,84,0.00,,,0.00,meteohub,2013-03-18 05:22:00,
2013-03-18 01:27:00,48.4,43.7,29.96,WNW,294,0.0,6.0,84,0.00,,,0.00,meteohub,2013-03-18 05:27:00,
2013-03-18 01:32:00,48.0,43.3,29.96,WSW,252,0.0,6.0,84,0.00,,,0.00,meteohub,2013-03-18 05:32:00,
2013-03-18 01:37:00,47.8,43.2,29.96,WSW,250,1.0,3.0,84,0.00,,,0.00,meteohub,2013-03-18 05:37:00,
2013-03-18 01:42:00,47.5,42.8,29.96,SE,125,0.0,3.0,84,0.00,,,0.00,meteohub,2013-03-18 05:42:00,
2013-03-18 01:47:00,47.5,42.8,29.96,SW,215,1.0,3.0,84,0.00,,,0.00,meteohub,2013-03-18 05:47:00,
2013-03-18 01:52:00,47.1,42.6,29.96,WSW,250,0.0,2.0,84,0.00,,,0.00,meteohub,2013-03-18 05:52:00,
2013-03-18 01:57:00,46.8,42.4,29.96,SSE,153,1.0,2.0,85,0.00,,,0.00,meteohub,2013-03-18 05:57:00,
2013-03-18 02:02:00,46.8,42.4,29.96,SE,127,0.0,2.0,85,0.00,,,0.00,meteohub,2013-03-18 06:02:00,
2013-03-18 02:07:00,46.6,42.3,29.96,East,82,0.0,2.0,85,0.00,,,0.00,meteohub,2013-03-18 06:07:00,
2013-03-18 02:12:00,46.2,41.9,29.97,SE,138,0.0,4.0,85,0.00,,,0.00,meteohub,2013-03-18 06:12:00,
2013-03-18 02:17:00,46.2,42.3,29.97,ESE,122,0.0,4.0,86,0.00,,,0.00,meteohub,2013-03-18 06:17:00,
2013-03-18 02:22:00,46.2,42.3,29.97,South,183,1.0,2.0,86,0.00,,,0.00,meteohub,2013-03-18 06:22:00,
2013-03-18 02:27:00,46.2,42.3,29.97,ESE,106,0.0,2.0,86,0.00,,,0.00,meteohub,2013-03-18 06:27:00,
2013-03-18 02:32:00,46.2,42.3,29.97,SSE,154,1.0,2.0,86,0.00,,,0.00,meteohub,2013-03-18 06:32:00,
2013-03-18 02:37:00,46.0,42.1,29.98,SE,129,0.0,3.0,86,0.00,,,0.00,meteohub,2013-03-18 06:37:00,
2013-03-18 02:42:00,46.0,42.1,29.97,SE,135,0.0,3.0,86,0.00,,,0.00,meteohub,2013-03-18 06:42:00,
2013-03-18 02:47:00,46.0,42.1,29.97,SSE,153,0.0,2.0,86,0.00,,,0.00,meteohub,2013-03-18 06:47:00,
2013-03-18 02:52:00,45.9,41.9,29.98,SE,143,0.0,2.0,86,0.00,,,0.00,meteohub,2013-03-18 06:52:00,
2013-03-18 02:57:00,45.9,41.9,29.98,SSE,152,2.0,2.0,86,0.00,,,0.00,meteohub,2013-03-18 06:57:00,
2013-03-18 03:02:00,45.7,41.7,29.97,SE,129,3.0,4.0,86,0.00,,,0.00,meteohub,2013-03-18 07:02:00,
2013-03-18 03:07:00,45.7,41.7,29.98,SE,132,0.0,4.0,86,0.00,,,0.00,meteohub,2013-03-18 07:07:00,
2013-03-18 03:12:00,45.7,41.7,29.98,SSE,155,1.0,4.0,86,0.00,,,0.00,meteohub,2013-03-18 07:12:00,
2013-03-18 03:17:00,45.7,41.7,29.98,SSE,150,0.0,3.0,86,0.00,,,0.00,meteohub,2013-03-18 07:17:00,
2013-03-18 03:22:00,45.7,41.7,29.98,SSE,159,0.0,1.0,86,0.00,,,0.00,meteohub,2013-03-18 07:22:00,
2013-03-18 03:28:00,45.7,41.7,29.97,SSE,150,0.0,1.0,86,0.00,,,0.00,meteohub,2013-03-18 07:28:00,
2013-03-18 03:33:00,45.5,41.5,29.98,SE,131,0.0,1.0,86,0.00,,,0.00,meteohub,2013-03-18 07:33:00,
2013-03-18 03:38:00,45.3,41.4,29.97,SE,136,0.0,2.0,86,0.00,,,0.00,meteohub,2013-03-18 07:38:00,
2013-03-18 03:43:00,45.1,41.5,29.97,SE,143,1.0,2.0,87,0.00,,,0.00,meteohub,2013-03-18 07:43:00,
2013-03-18 03:48:00,45.1,41.2,29.97,SSW,197,1.0,2.0,86,0.00,,,0.00,meteohub,2013-03-18 07:48:00,
2013-03-18 03:53:00,45.0,41.0,29.97,ESE,106,0.0,3.0,86,0.00,,,0.00,meteohub,2013-03-18 07:53:00,
2013-03-18 03:58:00,45.0,41.4,29.97,SW,221,1.0,3.0,87,0.00,,,0.00,meteohub,2013-03-18 07:58:00,
2013-03-18 04:03:00,44.8,40.8,29.97,SE,129,0.0,2.0,86,0.00,,,0.00,meteohub,2013-03-18 08:03:00,
2013-03-18 04:08:00,44.8,40.8,29.97,West,263,0.0,1.0,86,0.00,,,0.00,meteohub,2013-03-18 08:08:00,
2013-03-18 04:13:00,44.4,40.8,29.98,ESE,117,1.0,1.0,87,0.00,,,0.00,meteohub,2013-03-18 08:13:00,
2013-03-18 04:18:00,43.5,39.9,29.98,North,11,0.0,1.0,87,0.00,,,0.00,meteohub,2013-03-18 08:18:00,
2013-03-18 04:24:00,43.5,39.9,29.98,North,-999,-999.0,1.0,87,0.00,,,0.00,meteohub,2013-03-18 08:24:00,
2013-03-18 09:15:00,39.9,39.2,29.98,North,-999,-999.0,-999.0,97,-99.99,,,0.00,meteohub,2013-03-18 13:15:00,
2013-03-18 09:20:00,39.9,39.2,29.98,North,-999,-999.0,-999.0,97,0.00,,,0.00,meteohub,2013-03-18 13:20:00,
2013-03-18 09:25:00,39.9,39.2,29.98,ESE,122,0.0,0.0,97,0.00,,,0.00,meteohub,2013-03-18 13:25:00,
2013-03-18 09:30:00,39.7,39.0,29.99,SW,229,1.0,2.0,97,0.00,,,0.00,meteohub,2013-03-18 13:30:00,
2013-03-18 09:35:00,39.9,39.2,29.99,West,264,0.0,2.0,97,0.00,,,0.00,meteohub,2013-03-18 13:35:00,
2013-03-18 09:40:00,39.9,39.2,29.99,SSW,201,0.0,2.0,97,0.01,,,0.01,meteohub,2013-03-18 13:40:00,
2013-03-18 09:45:00,39.9,39.2,29.99,West,266,0.0,2.0,97,0.01,,,0.01,meteohub,2013-03-18 13:45:00,
2013-03-18 09:50:00,39.9,39.2,29.99,WSW,248,0.0,1.0,97,0.01,,,0.01,meteohub,2013-03-18 13:50:00,
2013-03-18 09:55:00,39.7,39.0,29.99,South,172,0.0,1.0,97,0.01,,,0.01,meteohub,2013-03-18 13:55:00,
2013-03-18 10:00:00,39.7,39.0,29.99,South,173,0.0,1.0,97,0.01,,,0.01,meteohub,2013-03-18 14:00:00,
2013-03-18 10:06:00,39.6,38.8,29.99,SE,136,0.0,1.0,97,0.01,,,0.01,meteohub,2013-03-18 14:06:00,
2013-03-18 10:11:00,39.6,38.8,29.99,SE,134,0.0,1.0,97,0.02,,,0.02,meteohub,2013-03-18 14:11:00,
2013-03-18 10:16:00,39.7,39.0,30.00,WNW,302,0.0,1.0,97,0.02,,,0.02,meteohub,2013-03-18 14:16:00,
2013-03-18 10:21:00,39.7,39.0,30.00,North,11,5.0,5.0,97,0.02,,,0.02,meteohub,2013-03-18 14:21:00,
2013-03-18 10:26:00,39.6,38.8,30.00,NE,44,0.0,5.0,97,0.02,,,0.02,meteohub,2013-03-18 14:26:00,
2013-03-18 10:31:00,39.6,38.8,30.00,ENE,77,2.0,5.0,97,0.02,,,0.02,meteohub,2013-03-18 14:31:00,
2013-03-18 10:36:00,39.6,38.8,30.00,ENE,75,1.0,5.0,97,0.02,,,0.02,meteohub,2013-03-18 14:36:00,
2013-03-18 10:41:00,39.4,38.7,30.00,ENE,62,2.0,3.0,97,0.01,,,0.02,meteohub,2013-03-18 14:41:00,
2013-03-18 10:46:00,39.4,38.7,30.00,NNE,23,2.0,4.0,97,0.01,,,0.02,meteohub,2013-03-18 14:46:00,
2013-03-18 10:51:00,39.4,38.7,30.00,NE,39,2.0,4.0,97,0.01,,,0.02,meteohub,2013-03-18 14:51:00,
2013-03-18 10:56:00,39.4,38.7,30.00,ENE,76,1.0,4.0,97,0.01,,,0.02,meteohub,2013-03-18 14:56:00,
2013-03-18 11:01:00,39.6,38.8,30.00,East,90,0.0,4.0,97,0.01,,,0.02,meteohub,2013-03-18 15:01:00,
2013-03-18 11:06:00,39.6,38.8,29.99,NNE,22,1.0,4.0,97,0.01,,,0.02,meteohub,2013-03-18 15:06:00,
2013-03-18 11:12:00,39.7,39.0,29.99,NW,324,0.0,4.0,97,0.01,,,0.02,meteohub,2013-03-18 15:12:00,
2013-03-18 11:17:00,39.9,39.2,29.99,NNW,345,0.0,3.0,97,0.00,,,0.02,meteohub,2013-03-18 15:17:00,
2013-03-18 11:22:00,40.1,39.4,29.99,NE,37,0.0,3.0,97,0.00,,,0.02,meteohub,2013-03-18 15:22:00,
2013-03-18 11:27:00,40.5,39.7,29.99,NE,41,0.0,2.0,97,0.00,,,0.02,meteohub,2013-03-18 15:27:00,
2013-03-18 11:32:00,40.5,39.7,29.99,North,6,0.0,2.0,97,0.00,,,0.02,meteohub,2013-03-18 15:32:00,
2013-03-18 11:37:00,40.6,39.9,29.99,ENE,71,0.0,2.0,97,0.00,,,0.02,meteohub,2013-03-18 15:37:00,
2013-03-18 11:42:00,40.8,40.1,29.98,ENE,70,0.0,2.0,97,0.01,,,0.03,meteohub,2013-03-18 15:42:00,
2013-03-18 11:47:00,41.2,40.5,29.98,SE,136,0.0,2.0,97,0.01,,,0.03,meteohub,2013-03-18 15:47:00,
2013-03-18 11:52:00,41.4,40.6,29.99,East,96,0.0,2.0,97,0.01,,,0.03,meteohub,2013-03-18 15:52:00,
2013-03-18 11:57:00,41.2,40.1,29.98,SE,139,0.0,2.0,96,0.01,,,0.03,meteohub,2013-03-18 15:57:00,
2013-03-18 12:02:00,41.2,40.1,29.98,East,100,0.0,2.0,96,0.01,,,0.03,meteohub,2013-03-18 16:02:00,
2013-03-18 12:07:00,41.2,40.1,29.98,SE,138,1.0,2.0,96,0.01,,,0.03,meteohub,2013-03-18 16:07:00,
2013-03-18 12:12:00,41.2,40.1,29.98,East,98,0.0,3.0,96,0.01,,,0.03,meteohub,2013-03-18 16:12:00,
2013-03-18 12:17:00,41.2,40.1,29.99,West,281,1.0,3.0,96,0.01,,,0.03,meteohub,2013-03-18 16:17:00,
2013-03-18 12:22:00,41.2,40.1,29.99,WSW,241,0.0,3.0,96,0.01,,,0.03,meteohub,2013-03-18 16:22:00,
2013-03-18 12:27:00,41.4,40.3,29.99,West,278,0.0,2.0,96,0.01,,,0.03,meteohub,2013-03-18 16:27:00,
2013-03-18 12:32:00,41.2,40.1,29.98,West,263,0.0,2.0,96,0.01,,,0.03,meteohub,2013-03-18 16:32:00,
2013-03-18 12:37:00,41.4,40.6,29.98,West,263,0.0,2.0,97,0.01,,,0.04,meteohub,2013-03-18 16:37:00,
2013-03-18 12:42:00,41.5,40.8,29.98,NNW,330,0.0,2.0,97,0.01,,,0.04,meteohub,2013-03-18 16:42:00,
2013-03-18 12:47:00,41.7,41.0,29.97,NNW,335,0.0,1.0,97,0.01,,,0.04,meteohub,2013-03-18 16:47:00,
2013-03-18 12:52:00,41.7,41.0,29.97,ESE,103,0.0,1.0,97,0.01,,,0.04,meteohub,2013-03-18 16:52:00,
2013-03-18 12:57:00,41.5,40.5,29.97,ENE,68,0.0,1.0,96,0.01,,,0.04,meteohub,2013-03-18 16:57:00,
2013-03-18 13:02:00,41.4,40.3,29.97,NNW,342,0.0,2.0,96,0.01,,,0.04,meteohub,2013-03-18 17:02:00,
2013-03-18 13:07:00,41.4,40.3,29.96,NNW,331,0.0,2.0,96,0.01,,,0.04,meteohub,2013-03-18 17:07:00,
2013-03-18 13:12:00,41.7,41.0,29.96,ENE,67,0.0,2.0,97,0.01,,,0.04,meteohub,2013-03-18 17:12:00,
2013-03-18 13:17:00,42.3,41.5,29.96,West,271,0.0,1.0,97,0.01,,,0.04,meteohub,2013-03-18 17:17:00,
2013-03-18 13:22:00,42.6,41.9,29.96,SSE,156,0.0,1.0,97,0.01,,,0.04,meteohub,2013-03-18 17:22:00,
2013-03-18 13:27:00,42.3,41.2,29.96,ESE,114,0.0,5.0,96,0.01,,,0.04,meteohub,2013-03-18 17:27:00,
2013-03-18 13:32:00,42.3,41.2,29.95,SE,128,0.0,5.0,96,0.02,,,0.05,meteohub,2013-03-18 17:32:00,
2013-03-18 13:37:00,42.3,41.5,29.95,SE,139,0.0,5.0,97,0.01,,,0.05,meteohub,2013-03-18 17:37:00,
2013-03-18 13:42:00,42.6,41.9,29.95,SW,217,0.0,5.0,97,0.01,,,0.05,meteohub,2013-03-18 17:42:00,
2013-03-18 13:47:00,42.8,41.7,29.95,West,269,0.0,4.0,96,0.01,,,0.05,meteohub,2013-03-18 17:47:00,
2013-03-18 13:52:00,42.8,41.7,29.95,ENE,63,0.0,2.0,96,0.01,,,0.05,meteohub,2013-03-18 17:52:00,
2013-03-18 13:57:00,42.6,41.5,29.94,East,81,1.0,2.0,96,0.01,,,0.05,meteohub,2013-03-18 17:57:00,
2013-03-18 14:02:00,42.6,41.5,29.94,SE,141,0.0,2.0,96,0.01,,,0.05,meteohub,2013-03-18 18:02:00,
2013-03-18 14:07:00,42.6,41.5,29.93,ESE,121,2.0,2.0,96,0.01,,,0.05,meteohub,2013-03-18 18:07:00,
2013-03-18 14:12:00,42.6,41.5,29.93,East,91,0.0,3.0,96,0.01,,,0.05,meteohub,2013-03-18 18:12:00,
2013-03-18 14:17:00,43.0,41.9,29.93,SSE,150,0.0,3.0,96,0.01,,,0.05,meteohub,2013-03-18 18:17:00,
2013-03-18 14:22:00,43.0,41.9,29.93,SE,132,0.0,3.0,96,0.01,,,0.05,meteohub,2013-03-18 18:22:00,
2013-03-18 14:27:00,42.8,41.7,29.93,WSW,243,0.0,2.0,96,0.00,,,0.05,meteohub,2013-03-18 18:27:00,
2013-03-18 14:32:00,42.6,41.5,29.93,SE,131,0.0,1.0,96,0.00,,,0.05,meteohub,2013-03-18 18:32:00,
2013-03-18 14:37:00,42.6,41.5,29.93,SSE,150,1.0,2.0,96,0.00,,,0.05,meteohub,2013-03-18 18:37:00,
2013-03-18 14:42:00,42.6,41.5,29.92,SE,129,1.0,2.0,96,0.00,,,0.05,meteohub,2013-03-18 18:42:00,
2013-03-18 14:47:00,42.6,41.5,29.92,ENE,72,0.0,4.0,96,0.01,,,0.06,meteohub,2013-03-18 18:47:00,
2013-03-18 14:52:00,43.0,42.3,29.91,North,8,0.0,4.0,97,0.01,,,0.06,meteohub,2013-03-18 18:52:00,
2013-03-18 14:57:00,43.0,41.9,29.91,WSW,249,0.0,3.0,96,0.01,,,0.06,meteohub,2013-03-18 18:57:00,
2013-03-18 15:02:00,42.8,42.1,29.91,South,174,0.0,2.0,97,0.01,,,0.06,meteohub,2013-03-18 19:02:00,
2013-03-18 15:07:00,43.0,42.3,29.91,SE,125,0.0,2.0,97,0.01,,,0.06,meteohub,2013-03-18 19:07:00,
2013-03-18 15:12:00,43.2,42.4,29.90,SE,126,0.0,2.0,97,0.01,,,0.06,meteohub,2013-03-18 19:12:00,
2013-03-18 15:17:00,43.5,42.8,29.90,South,179,0.0,1.0,97,0.01,,,0.06,meteohub,2013-03-18 19:17:00,
2013-03-18 15:22:00,43.3,42.6,29.90,SSE,164,0.0,1.0,97,0.01,,,0.06,meteohub,2013-03-18 19:22:00,
2013-03-18 15:27:00,43.3,42.3,29.89,SSE,156,0.0,1.0,96,0.01,,,0.06,meteohub,2013-03-18 19:27:00,
2013-03-18 15:32:00,43.5,42.8,29.89,ESE,114,0.0,1.0,97,0.01,,,0.06,meteohub,2013-03-18 19:32:00,
2013-03-18 15:37:00,43.5,42.4,29.89,SSE,167,1.0,1.0,96,0.02,,,0.07,meteohub,2013-03-18 19:37:00,
2013-03-18 15:42:00,43.3,42.3,29.89,East,84,0.0,4.0,96,0.01,,,0.07,meteohub,2013-03-18 19:42:00,
2013-03-18 15:47:00,43.3,42.3,29.88,SSE,148,2.0,4.0,96,0.01,,,0.07,meteohub,2013-03-18 19:47:00,
2013-03-18 15:52:00,43.2,42.1,29.88,SW,228,2.0,4.0,96,0.01,,,0.07,meteohub,2013-03-18 19:52:00,
2013-03-18 15:57:00,43.2,42.4,29.88,SE,141,0.0,5.0,97,0.01,,,0.07,meteohub,2013-03-18 19:57:00,
2013-03-18 16:03:00,43.2,42.4,29.89,WNW,286,1.0,5.0,97,0.05,,,0.11,meteohub,2013-03-18 20:03:00,
2013-03-18 16:08:00,43.2,42.4,29.89,South,170,0.0,5.0,97,0.05,,,0.11,meteohub,2013-03-18 20:08:00,
2013-03-18 16:13:00,43.0,42.3,29.88,SE,139,1.0,1.0,97,0.05,,,0.11,meteohub,2013-03-18 20:13:00,
2013-03-18 16:18:00,43.0,42.3,29.88,SSE,150,1.0,3.0,97,0.05,,,0.11,meteohub,2013-03-18 20:18:00,
2013-03-18 16:23:00,43.0,42.3,29.89,SSW,193,0.0,3.0,97,0.05,,,0.11,meteohub,2013-03-18 20:23:00,
2013-03-18 16:28:00,43.0,42.3,29.88,SE,129,0.0,3.0,97,0.06,,,0.12,meteohub,2013-03-18 20:28:00,
2013-03-18 16:33:00,43.0,42.3,29.88,West,277,0.0,2.0,97,0.06,,,0.12,meteohub,2013-03-18 20:33:00,
2013-03-18 16:38:00,43.0,42.3,29.88,SE,129,0.0,2.0,97,0.06,,,0.13,meteohub,2013-03-18 20:38:00,
2013-03-18 16:43:00,43.0,42.3,29.88,SSE,163,1.0,1.0,97,0.06,,,0.13,meteohub,2013-03-18 20:43:00,
2013-03-18 16:48:00,43.0,42.3,29.88,SE,131,1.0,1.0,97,0.06,,,0.13,meteohub,2013-03-18 20:48:00,
2013-03-18 16:53:00,43.0,42.3,29.88,SSW,207,0.0,1.0,97,0.07,,,0.14,meteohub,2013-03-18 20:53:00,
2013-03-18 16:58:00,43.0,42.3,29.88,West,276,0.0,1.0,97,0.07,,,0.15,meteohub,2013-03-18 20:58:00,
2013-03-18 17:03:00,43.0,42.3,29.88,SE,125,1.0,2.0,97,0.04,,,0.15,meteohub,2013-03-18 21:03:00,
2013-03-18 17:08:00,43.0,42.4,29.89,WSW,249,0.0,2.0,98,0.05,,,0.16,meteohub,2013-03-18 21:08:00,
2013-03-18 17:13:00,43.0,42.3,29.88,WNW,294,0.0,1.0,97,0.05,,,0.16,meteohub,2013-03-18 21:13:00,
2013-03-18 17:18:00,43.0,42.4,29.89,SW,224,0.0,3.0,98,0.05,,,0.16,meteohub,2013-03-18 21:18:00,
2013-03-18 17:23:00,43.0,42.3,29.89,WNW,289,0.0,3.0,97,0.04,,,0.16,meteohub,2013-03-18 21:23:00,
2013-03-18 17:28:00,43.0,42.4,29.90,West,278,0.0,3.0,98,0.05,,,0.17,meteohub,2013-03-18 21:28:00,
2013-03-18 17:33:00,43.0,42.4,29.90,NW,314,0.0,2.0,98,0.05,,,0.17,meteohub,2013-03-18 21:33:00,
2013-03-18 17:38:00,43.2,42.6,29.91,NNW,345,0.0,2.0,98,0.04,,,0.17,meteohub,2013-03-18 21:38:00,
2013-03-18 17:43:00,43.2,42.6,29.91,SE,138,0.0,2.0,98,0.04,,,0.17,meteohub,2013-03-18 21:43:00,
2013-03-18 17:48:00,43.2,42.6,29.93,WNW,293,0.0,2.0,98,0.04,,,0.17,meteohub,2013-03-18 21:48:00,
2013-03-18 17:53:00,43.0,42.4,29.89,ESE,107,1.0,3.0,98,0.04,,,0.18,meteohub,2013-03-18 21:53:00,
2013-03-18 17:58:00,43.0,42.4,29.88,ENE,78,2.0,4.0,98,0.16,,,0.31,meteohub,2013-03-18 21:58:00,
2013-03-18 18:03:00,43.0,42.4,29.89,SE,146,1.0,4.0,98,0.17,,,0.33,meteohub,2013-03-18 22:03:00,
2013-03-18 18:08:00,43.2,42.6,29.88,SE,129,0.0,4.0,98,0.18,,,0.34,meteohub,2013-03-18 22:08:00,
2013-03-18 18:13:00,43.3,42.8,29.88,SE,129,0.0,4.0,98,0.18,,,0.34,meteohub,2013-03-18 22:13:00,
2013-03-18 18:18:00,43.5,43.0,29.89,NNW,346,0.0,4.0,98,0.18,,,0.34,meteohub,2013-03-18 22:18:00,
2013-03-18 18:23:00,43.5,43.0,29.90,NE,37,3.0,3.0,98,0.18,,,0.34,meteohub,2013-03-18 22:23:00,
2013-03-18 18:28:00,43.0,42.3,29.90,ENE,62,1.0,6.0,97,0.17,,,0.34,meteohub,2013-03-18 22:28:00,
2013-03-18 18:33:00,42.3,41.5,29.90,NNE,18,11.0,11.0,97,0.17,,,0.34,meteohub,2013-03-18 22:33:00,
2013-03-18 18:38:00,41.7,41.0,29.90,NE,39,5.0,14.0,97,0.19,,,0.36,meteohub,2013-03-18 22:38:00,
2013-03-18 18:43:00,41.5,41.0,29.90,NNW,335,1.0,17.0,98,0.20,,,0.37,meteohub,2013-03-18 22:43:00,
2013-03-18 18:48:00,42.1,41.5,29.94,NNW,345,5.0,17.0,98,0.21,,,0.38,meteohub,2013-03-18 22:48:00,
2013-03-18 18:53:00,42.1,41.5,29.95,NNW,330,0.0,16.0,98,0.15,,,0.39,meteohub,2013-03-18 22:53:00,
2013-03-18 18:58:00,41.7,41.2,29.94,SE,132,1.0,16.0,98,0.13,,,0.45,meteohub,2013-03-18 22:58:00,
2013-03-18 19:03:00,41.5,41.0,29.94,East,89,1.0,11.0,98,0.18,,,0.51,meteohub,2013-03-18 23:03:00,
2013-03-18 19:08:00,41.5,41.0,29.92,North,6,1.0,11.0,98,0.21,,,0.55,meteohub,2013-03-18 23:08:00,
2013-03-18 19:13:00,41.9,41.4,29.91,NNE,27,5.0,5.0,98,0.21,,,0.55,meteohub,2013-03-18 23:13:00,
2013-03-18 19:18:00,42.4,41.9,29.91,NNW,334,2.0,5.0,98,0.22,,,0.56,meteohub,2013-03-18 23:18:00,
2013-03-18 19:23:00,42.4,41.9,29.91,NNW,343,1.0,7.0,98,0.22,,,0.56,meteohub,2013-03-18 23:23:00,
2013-03-18 19:28:00,42.6,42.1,29.91,North,349,2.0,7.0,98,0.23,,,0.57,meteohub,2013-03-18 23:28:00,
2013-03-18 19:33:00,42.8,42.3,29.92,ESE,114,0.0,5.0,98,0.23,,,0.57,meteohub,2013-03-18 23:33:00,
2013-03-18 19:38:00,43.0,42.4,29.93,North,356,0.0,5.0,98,0.20,,,0.57,meteohub,2013-03-18 23:38:00,
2013-03-18 19:43:00,43.0,42.4,29.94,SE,131,1.0,4.0,98,0.20,,,0.58,meteohub,2013-03-18 23:43:00,
2013-03-18 19:48:00,42.8,42.3,29.94,SE,138,0.0,3.0,98,0.19,,,0.58,meteohub,2013-03-18 23:48:00,
2013-03-18 19:53:00,42.6,42.1,29.94,South,180,2.0,3.0,98,0.19,,,0.58,meteohub,2013-03-18 23:53:00,
2013-03-18 19:59:00,42.6,42.1,29.94,WSW,255,0.0,3.0,98,0.11,,,0.58,meteohub,2013-03-18 23:59:00,
2013-03-18 20:04:00,42.4,41.9,29.94,NW,319,0.0,3.0,98,0.05,,,0.58,meteohub,2013-03-19 00:04:00,
2013-03-18 20:09:00,42.4,41.9,29.93,NW,319,0.0,3.0,98,0.04,,,0.01,meteohub,2013-03-19 00:09:00,
2013-03-18 20:14:00,42.4,41.9,29.93,West,278,1.0,2.0,98,0.03,,,0.01,meteohub,2013-03-19 00:14:00,
2013-03-18 20:19:00,42.6,42.1,29.92,North,349,0.0,1.0,98,0.04,,,0.02,meteohub,2013-03-19 00:19:00,
2013-03-18 20:24:00,42.4,41.9,29.91,ENE,64,1.0,2.0,98,0.03,,,0.02,meteohub,2013-03-19 00:24:00,
2013-03-18 20:29:00,42.4,41.9,29.88,East,79,0.0,2.0,98,0.03,,,0.02,meteohub,2013-03-19 00:29:00,
2013-03-18 20:34:00,42.4,41.9,29.90,West,278,1.0,1.0,98,0.03,,,0.02,meteohub,2013-03-19 00:34:00,
2013-03-18 20:39:00,42.4,41.9,29.88,North,8,0.0,3.0,98,0.03,,,0.02,meteohub,2013-03-19 00:39:00,
2013-03-18 20:44:00,42.3,41.7,29.86,East,92,0.0,3.0,98,0.02,,,0.02,meteohub,2013-03-19 00:44:00,
2013-03-18 20:49:00,42.3,41.7,29.86,East,91,0.0,3.0,98,0.02,,,0.02,meteohub,2013-03-19 00:49:00,
2013-03-18 20:54:00,42.3,41.7,29.86,West,263,3.0,3.0,98,0.02,,,0.02,meteohub,2013-03-19 00:54:00,
2013-03-18 20:59:00,42.3,41.7,29.86,West,270,1.0,3.0,98,0.02,,,0.02,meteohub,2013-03-19 00:59:00,
2013-03-18 21:04:00,42.1,41.5,29.87,WNW,295,1.0,4.0,98,0.02,,,0.02,meteohub,2013-03-19 01:04:00,
2013-03-18 21:09:00,42.1,41.5,29.88,North,352,0.0,4.0,98,0.01,,,0.02,meteohub,2013-03-19 01:09:00,
2013-03-18 21:14:00,42.1,41.5,29.88,North,0,0.0,3.0,98,0.01,,,0.02,meteohub,2013-03-19 01:14:00,
2013-03-18 21:19:00,42.1,41.5,29.89,North,359,0.0,3.0,98,0.00,,,0.02,meteohub,2013-03-19 01:19:00,
2013-03-18 21:24:00,42.1,41.5,29.89,NNW,343,0.0,1.0,98,0.00,,,0.02,meteohub,2013-03-19 01:24:00,
2013-03-18 21:29:00,41.9,41.4,29.89,NNW,345,0.0,1.0,98,0.00,,,0.02,meteohub,2013-03-19 01:29:00,
2013-03-18 21:34:00,42.1,41.5,29.90,NW,308,0.0,1.0,98,0.00,,,0.02,meteohub,2013-03-19 01:34:00,
2013-03-18 21:39:00,41.9,41.7,29.89,NW,308,0.0,1.0,99,0.00,,,0.02,meteohub,2013-03-19 01:39:00,
2013-03-18 21:44:00,41.9,41.4,29.89,NW,308,0.0,1.0,98,0.00,,,0.02,meteohub,2013-03-19 01:44:00,
2013-03-18 21:49:00,41.7,41.5,29.88,SE,143,0.0,1.0,99,0.00,,,0.02,meteohub,2013-03-19 01:49:00,
2013-03-18 21:54:00,41.7,41.5,29.88,SE,141,0.0,1.0,99,0.00,,,0.02,meteohub,2013-03-19 01:54:00,
2013-03-18 21:59:00,41.7,41.2,29.88,SE,141,0.0,1.0,98,0.00,,,0.02,meteohub,2013-03-19 01:59:00,
2013-03-18 22:04:00,41.7,41.5,29.88,SE,141,0.0,1.0,99,0.00,,,0.02,meteohub,2013-03-19 02:04:00,
2013-03-18 22:09:00,41.7,41.5,29.88,SE,141,0.0,0.0,99,0.00,,,0.02,meteohub,2013-03-19 02:09:00,
2013-03-18 22:14:00,41.7,41.5,29.88,SE,141,0.0,0.0,99,0.00,,,0.02,meteohub,2013-03-19 02:14:00,
2013-03-18 22:19:00,41.7,41.5,29.88,SE,141,0.0,0.0,99,0.00,,,0.02,meteohub,2013-03-19 02:19:00,
2013-03-18 22:24:00,41.7,41.5,29.88,SE,141,0.0,0.0,99,0.00,,,0.02,meteohub,2013-03-19 02:24:00,
2013-03-18 22:29:00,41.9,41.7,29.88,SE,143,0.0,0.0,99,0.00,,,0.02,meteohub,2013-03-19 02:29:00,
2013-03-18 22:34:00,41.9,41.7,29.88,SE,143,0.0,1.0,99,0.00,,,0.02,meteohub,2013-03-19 02:34:00,
2013-03-18 22:39:00,41.7,41.5,29.88,SE,143,0.0,1.0,99,0.00,,,0.02,meteohub,2013-03-19 02:39:00,
2013-03-18 22:44:00,41.7,41.5,29.89,SSE,163,0.0,1.0,99,0.00,,,0.02,meteohub,2013-03-19 02:44:00,
2013-03-18 22:49:00,41.7,41.5,29.89,SSE,159,0.0,1.0,99,0.00,,,0.02,meteohub,2013-03-19 02:49:00,
2013-03-18 22:54:00,41.7,41.5,29.89,SSE,148,1.0,1.0,99,0.00,,,0.02,meteohub,2013-03-19 02:54:00,
2013-03-18 23:00:00,41.7,41.5,29.89,SE,132,1.0,1.0,99,0.00,,,0.02,meteohub,2013-03-19 03:00:00,
2013-03-18 23:05:00,41.5,41.4,29.89,SE,136,2.0,3.0,99,0.00,,,0.02,meteohub,2013-03-19 03:05:00,
2013-03-18 23:10:00,41.5,41.4,29.89,SSE,162,1.0,3.0,99,0.00,,,0.02,meteohub,2013-03-19 03:10:00,
2013-03-18 23:15:00,41.5,41.4,29.89,South,181,1.0,3.0,99,0.00,,,0.02,meteohub,2013-03-19 03:15:00,
2013-03-18 23:20:00,41.5,41.4,29.90,SSE,151,0.0,3.0,99,0.00,,,0.02,meteohub,2013-03-19 03:20:00,
2013-03-18 23:25:00,41.5,41.4,29.90,SSE,156,0.0,2.0,99,0.00,,,0.02,meteohub,2013-03-19 03:25:00,
2013-03-18 23:30:00,41.5,41.4,29.90,SE,143,0.0,2.0,99,0.00,,,0.02,meteohub,2013-03-19 03:30:00,
2013-03-18 23:35:00,41.4,41.2,29.90,SE,143,0.0,2.0,99,0.00,,,0.02,meteohub,2013-03-19 03:35:00,
2013-03-18 23:40:00,41.2,41.0,29.90,SSE,152,0.0,1.0,99,0.00,,,0.02,meteohub,2013-03-19 03:40:00,
2013-03-18 23:45:00,40.8,40.6,29.89,SSE,152,0.0,1.0,99,0.00,,,0.02,meteohub,2013-03-19 03:45:00,
2013-03-18 23:50:00,40.8,40.6,29.89,SSE,152,0.0,1.0,99,0.00,,,0.02,meteohub,2013-03-19 03:50:00,
2013-03-18 23:55:00,40.6,40.5,29.89,SSE,156,0.0,1.0,99,0.00,,,0.02,meteohub,2013-03-19 03:55:00,